weather.gov     
National Weather Service

Regional Weather Roundup
NWS Homepage
This page is being discontinued on March 12, 2014.
The same data is available at this site. Please update your bookmarks.
Thank you, and we apologize for the inconvenience.
Please send an email to SR-SRH.Webmaster@noaa.gov with any concerns.


Current Version
Previous Version:    01  02  03  04  05  06  07  08  09  10  11  12  13  14  15  16  17  18  19  20  21  22  23  24  25  26  
[Printable]
262
ASUS46 KSEW 272110
RWRWA

WASHINGTON REGIONAL WEATHER ROUNDUP
NATIONAL WEATHER SERVICE SEATTLE WA
100 PM PST THU NOV 27 2014

NOTE:"FAIR" INDICATES FEW OR NO CLOUDS BELOW 12,000 FEET WITH NO
SIGNIFICANT WEATHER AND/OR OBSTRUCTIONS TO VISIBILITY.

WAZ505-507>509-272200-
SEATTLE, TACOMA, EVERETT, AND VICINITY

CITY           SKY/WX    TMP DP  RH WIND       PRES   REMARKS
EVERETT        CLOUDY    55  50  83 S28G33    29.77F
BOEING FIELD   CLOUDY    59  51  75 S17G25    29.81S
RENTON         CLOUDY    58  51  78 S14       29.80F
SEATAC AIRPORT PTSUNNY   56  51  84 S21G28    29.81S
JBLM-MCCHORD   CLOUDY    54  54 100 S16       29.83F
PUYALLUP       NOT AVBL
JBLM-FT LEWIS  DRIZZLE   54  54 100 S14G20    29.83S
TACOMA NARROWS CLOUDY    54  51  90 S20G28    29.83S
$$

WAZ001-503-506-510-514-515-272200-
NORTH INTERIOR

CITY           SKY/WX    TMP DP  RH WIND       PRES   REMARKS
BELLINGHAM     CLOUDY    56  50  80 S17G26    29.71F
FRIDAY HARBOR  PTSUNNY   57  51  80 S5        29.72F
EASTSOUND      CLOUDY    55  52  88 S10G16    29.69F
PORT ANGELES   LGT RAIN  57  53  86 CALM      29.73F
NAS WHIDBEY    FAIR      61  52  72 S20G26    29.73F
BURLINGTON     CLOUDY    57  52  82 S13G22    29.75F
$$

WAZ020-022-039-040-504-511-512-272200-
SOUTHWEST INTERIOR

CITY           SKY/WX    TMP DP  RH WIND       PRES   REMARKS
SHELTON        PTSUNNY   57  53  86 SW17G28   29.79F
OLYMPIA        LGT RAIN  54  51  90 SW10G21   29.84S FOG
CHEHALIS       CLOUDY    55  54  94 S14G24    29.85F
KELSO          CLOUDY    55  50  82 SE15G29   29.94S
VANCOUVER      CLOUDY    57  48  72 S14G20    29.94F
SCAPPOOSE, OR  CLOUDY    55  50  83 S12G20    29.92F
PORTLAND, OR   CLOUDY    57  51  80 S15G26    29.95S
$$

WAZ021-516-517-272200-
WASHINGTON COAST

CITY           SKY/WX    TMP DP  RH WIND       PRES   REMARKS
FORKS          LGT RAIN  55  55 100 SW12G24   29.75S FOG
HOQUIAM        LGT RAIN  56  55  97 S21       29.82F FOG
ASTORIA, OR    CLOUDY    57  53  86 S17G26    29.86F
$$

WAZ019-023-024-040-518-519-272200-
CASCADE MOUNTAINS AND COLUMBIA GORGE

CITY           SKY/WX    TMP DP  RH WIND       PRES   REMARKS
STAMPEDE PASS  NOT AVBL
TROUTDALE, OR  CLOUDY    58  50  75 VRB5      29.94F
THE DALLES, OR CLOUDY    56  48  74 NW6       29.88F
$$

WAZ026-027-041>044-520-521-272200-
EAST SLOPES

CITY           SKY/WX    TMP DP  RH WIND       PRES   REMARKS
OMAK           FAIR      44  38  79 SE7       29.74F
WENATCHEE      CLOUDY    45  40  82 CALM      29.77F
ELLENSBURG     PTSUNNY   46  41  82 CALM      29.80F
YAKIMA         FAIR      63  44  50 S26G35    29.80F
$$

WAZ028-034-035-272200-
COLUMBIA BASIN

CITY           SKY/WX    TMP DP  RH WIND       PRES   REMARKS
EPHRATA        FAIR      58  47  66 S10       29.79F
MOSES LAKE     FAIR      60  46  59 SW10      29.81F
PASCO          CLOUDY    64  45  49 SW17G23   29.87S
HERMISTON, OR  CLOUDY    61  45  55 SW6       29.88F
$$

WAZ036>038-272200-
NORTHEAST WASHINGTON

CITY           SKY/WX    TMP DP  RH WIND       PRES   REMARKS
SPOKANE GEIGER PTSUNNY   54  43  66 SW21G26   29.83S
SPOKANE FELTS  PTSUNNY   57  42  57 SW16G26   29.83F
FAIRCHILD AFB  CLOUDY    53  44  73 SW18      29.82F
COEURDALENE,ID CLOUDY    55  43  62 SW22G28   29.82F
DEER PARK      CLOUDY    52  44  74 S13       29.82F
$$

WAZ029>033-272200-
SOUTHEAST WASHINGTON

CITY           SKY/WX    TMP DP  RH WIND       PRES   REMARKS
PULLMAN        CLOUDY    54  45  71 CALM      29.90F
LEWISTON, ID   CLOUDY    52  46  80 CALM      29.87F
WALLA WALLA    CLOUDY    57  44  62 CALM      29.89S
PENDLETON, OR  CLOUDY    58  42  55 W3        29.89F
$$




U.S. Dept. of Commerce
NOAA National Weather Service
1325 East West Highway
Silver Spring, MD 20910
E-mail: w-nws.webmaster@noaa.gov
Page last modified: May 16, 2007
NATIONAL WEATHER SERVICE: for Safety, for Work, for Fun - FOR LIFE